User: anonymous   Login
Location: Six Mile Lake
(44.9000°N, 79.7170°W)
Time: 12:03:03
(UTC-05:00)
Language:

deb Kosmos-1275 - Orbit

View from above orbital plane
View from above orbital plane
View from above satellite
View from above satellite

Ground track
Ground track

The orbit data is extracted from the following two-line orbital elements,

1 13472U 81053FU  22333.69914459  .00002364  00000-0  11533-2 0  9994
2 13472  82.8528 310.7456 0014543 247.8816 171.3577 14.17657492 64648
Epoch (UTC): 29 November 2022 16:46:46
Eccentricity: 0.0014543
inclination: 82.8528°
perigee height: 823 km
apogee height: 844 km
right ascension of ascending node: 310.7456°
argument of perigee: 247.8816°
revolutions per day: 14.17657492
mean anomaly at epoch: 171.3577°
orbit number at epoch: 6464

The dashed part of the orbit path shows where the satellite is in the earth's shadow,  

DLR